Time,TemperatureF,DewpointF,PressureIn,WindDirection,WindDirectionDegrees,WindSpeedMPH,WindSpeedGustMPH,Humidity,HourlyPrecipIn,Conditions,Clouds,dailyrainin,SoftwareType,DateUTC
2013-05-22 00:02:00,61.0,56.0,29.71,West,265,0.0,1.0,84,0.00,,,0.00,,2013-05-22 05:02:00,
2013-05-22 00:12:00,60.0,56.0,29.72,West,265,0.0,0.0,86,0.00,,,0.00,,2013-05-22 05:12:00,
2013-05-22 00:21:00,60.0,56.0,29.72,West,265,0.0,0.0,86,0.00,,,0.00,,2013-05-22 05:21:00,
2013-05-22 00:32:00,60.0,56.0,29.72,West,265,0.0,0.0,86,0.00,,,0.00,,2013-05-22 05:32:00,
2013-05-22 00:42:00,60.0,56.0,29.71,West,265,0.0,0.0,86,0.00,,,0.00,,2013-05-22 05:42:00,
2013-05-22 00:51:00,60.0,56.0,29.71,West,265,0.0,0.0,86,0.00,,,0.00,,2013-05-22 05:51:00,
2013-05-22 01:01:00,59.0,55.0,29.71,West,265,0.0,0.0,87,0.00,,,0.00,,2013-05-22 06:01:00,
2013-05-22 01:11:00,59.0,55.0,29.71,West,265,0.0,0.0,87,0.00,,,0.00,,2013-05-22 06:11:00,
2013-05-22 01:21:00,58.0,54.0,29.71,West,265,0.0,0.0,87,0.00,,,0.00,,2013-05-22 06:21:00,
2013-05-22 01:31:00,58.0,54.0,29.72,West,265,0.0,1.0,88,0.00,,,0.00,,2013-05-22 06:31:00,
2013-05-22 01:42:00,58.0,54.0,29.72,West,265,0.0,0.0,88,0.00,,,0.00,,2013-05-22 06:42:00,
2013-05-22 01:52:00,58.0,54.0,29.72,West,265,0.0,0.0,88,0.00,,,0.00,,2013-05-22 06:52:00,
2013-05-22 02:01:00,58.0,54.0,29.71,West,265,0.0,1.0,88,0.00,,,0.00,,2013-05-22 07:01:00,
2013-05-22 02:11:00,58.0,54.0,29.71,West,265,0.0,1.0,88,0.00,,,0.00,,2013-05-22 07:11:00,
2013-05-22 02:21:00,58.0,54.0,29.71,West,265,2.0,2.0,88,0.00,,,0.00,,2013-05-22 07:21:00,
2013-05-22 02:31:00,57.0,54.0,29.70,West,265,0.0,1.0,89,0.00,,,0.00,,2013-05-22 07:31:00,
2013-05-22 02:41:00,57.0,54.0,29.70,West,265,0.0,1.0,89,0.00,,,0.00,,2013-05-22 07:41:00,
2013-05-22 02:52:00,57.0,53.0,29.70,West,265,0.0,1.0,88,0.00,,,0.00,,2013-05-22 07:52:00,
2013-05-22 03:02:00,57.0,54.0,29.71,West,265,0.0,1.0,89,0.00,,,0.00,,2013-05-22 08:02:00,
2013-05-22 03:11:00,57.0,54.0,29.71,West,265,0.0,1.0,89,0.00,,,0.00,,2013-05-22 08:11:00,
2013-05-22 03:22:00,57.0,53.0,29.71,West,265,0.0,0.0,88,0.00,,,0.00,,2013-05-22 08:22:00,
2013-05-22 03:31:00,57.0,53.0,29.70,West,265,0.0,1.0,88,0.00,,,0.00,,2013-05-22 08:31:00,
2013-05-22 03:42:00,57.0,53.0,29.70,West,265,0.0,1.0,88,0.00,,,0.00,,2013-05-22 08:42:00,
2013-05-22 03:52:00,57.0,54.0,29.70,West,265,0.0,1.0,89,0.00,,,0.00,,2013-05-22 08:52:00,
2013-05-22 04:01:00,57.0,54.0,29.71,West,265,0.0,0.0,89,0.00,,,0.00,,2013-05-22 09:01:00,
2013-05-22 04:11:00,57.0,54.0,29.71,West,265,0.0,0.0,89,0.00,,,0.00,,2013-05-22 09:11:00,
2013-05-22 04:22:00,57.0,54.0,29.71,West,265,0.0,0.0,89,0.00,,,0.00,,2013-05-22 09:22:00,
2013-05-22 04:32:00,57.0,54.0,29.70,West,265,0.0,1.0,89,0.00,,,0.00,,2013-05-22 09:32:00,
2013-05-22 04:42:00,57.0,54.0,29.70,West,265,0.0,1.0,89,0.00,,,0.00,,2013-05-22 09:42:00,
2013-05-22 04:53:00,57.0,54.0,29.70,West,265,0.0,1.0,89,0.00,,,0.00,,2013-05-22 09:53:00,
2013-05-22 05:03:00,57.0,54.0,29.69,West,265,0.0,2.0,90,0.00,,,0.00,,2013-05-22 10:03:00,
2013-05-22 05:12:00,57.0,54.0,29.69,West,265,0.0,2.0,90,0.00,,,0.00,,2013-05-22 10:12:00,
2013-05-22 05:22:00,57.0,54.0,29.69,West,265,0.0,2.0,89,0.00,,,0.00,,2013-05-22 10:22:00,
2013-05-22 05:33:00,57.0,54.0,29.68,West,265,0.0,1.0,89,0.00,,,0.00,,2013-05-22 10:33:00,
2013-05-22 05:42:00,57.0,54.0,29.68,West,265,0.0,1.0,89,0.00,,,0.00,,2013-05-22 10:42:00,
2013-05-22 05:52:00,57.0,54.0,29.69,West,265,0.0,0.0,89,0.00,,,0.00,,2013-05-22 10:52:00,
2013-05-22 06:02:00,58.0,55.0,29.70,West,265,0.0,1.0,89,0.00,,,0.00,,2013-05-22 11:02:00,
2013-05-22 06:11:00,58.0,55.0,29.70,West,265,0.0,1.0,89,0.00,,,0.00,,2013-05-22 11:11:00,
2013-05-22 06:21:00,58.0,54.0,29.70,West,265,0.0,1.0,88,0.00,,,0.00,,2013-05-22 11:21:00,
2013-05-22 06:32:00,59.0,55.0,29.70,West,265,0.0,1.0,87,0.00,,,0.00,,2013-05-22 11:32:00,
2013-05-22 06:42:00,59.0,55.0,29.70,West,265,0.0,1.0,87,0.00,,,0.00,,2013-05-22 11:42:00,
2013-05-22 06:52:00,59.0,55.0,29.70,West,265,0.0,1.0,87,0.00,,,0.00,,2013-05-22 11:52:00,
2013-05-22 07:02:00,60.0,56.0,29.70,West,265,0.0,1.0,87,0.00,,,0.00,,2013-05-22 12:02:00,
2013-05-22 07:12:00,60.0,56.0,29.70,West,265,0.0,1.0,87,0.00,,,0.00,,2013-05-22 12:12:00,
2013-05-22 07:22:00,60.0,56.0,29.70,West,265,0.0,2.0,87,0.00,,,0.00,,2013-05-22 12:22:00,
2013-05-22 07:32:00,61.0,57.0,29.70,NW,324,0.0,1.0,86,0.00,,,0.00,,2013-05-22 12:32:00,
2013-05-22 07:42:00,61.0,57.0,29.70,NW,324,0.0,1.0,86,0.00,,,0.00,,2013-05-22 12:42:00,
2013-05-22 07:52:00,61.0,57.0,29.69,North,355,0.0,1.0,86,0.00,,,0.00,,2013-05-22 12:52:00,
2013-05-22 08:01:00,62.0,57.0,29.69,North,10,0.0,2.0,85,0.00,,,0.00,,2013-05-22 13:01:00,
2013-05-22 08:11:00,62.0,57.0,29.69,North,10,0.0,2.0,85,0.00,,,0.00,,2013-05-22 13:11:00,
2013-05-22 08:22:00,63.0,57.0,29.69,East,87,0.0,5.0,82,0.00,,,0.00,,2013-05-22 13:22:00,
2013-05-22 08:32:00,64.0,57.0,29.68,NE,36,0.0,7.0,79,0.00,,,0.00,,2013-05-22 13:32:00,
2013-05-22 08:41:00,64.0,57.0,29.68,NE,36,0.0,7.0,79,0.00,,,0.00,,2013-05-22 13:41:00,
2013-05-22 08:52:00,65.0,58.0,29.68,NE,46,2.0,5.0,78,0.00,,,0.00,,2013-05-22 13:52:00,
2013-05-22 09:02:00,65.0,58.0,29.68,North,11,0.0,4.0,77,0.00,,,0.00,,2013-05-22 14:02:00,
2013-05-22 09:11:00,65.0,58.0,29.68,North,11,0.0,4.0,77,0.00,,,0.00,,2013-05-22 14:11:00,
2013-05-22 09:21:00,65.0,58.0,29.69,ESE,103,2.0,3.0,77,0.00,,,0.00,,2013-05-22 14:21:00,
2013-05-22 09:32:00,65.0,58.0,29.69,ENE,59,1.0,5.0,78,0.00,,,0.00,,2013-05-22 14:32:00,
2013-05-22 09:42:00,65.0,58.0,29.69,ENE,59,1.0,5.0,78,0.00,,,0.00,,2013-05-22 14:42:00,
2013-05-22 09:52:00,65.0,59.0,29.68,ENE,63,0.0,3.0,80,0.00,,,0.00,,2013-05-22 14:52:00,
2013-05-22 10:01:00,64.0,59.0,29.69,NE,50,0.0,3.0,83,0.00,,,0.00,,2013-05-22 15:01:00,
2013-05-22 10:11:00,64.0,59.0,29.69,NE,50,0.0,3.0,83,0.00,,,0.00,,2013-05-22 15:11:00,
2013-05-22 10:21:00,63.0,58.0,29.69,NNE,32,0.0,3.0,85,0.01,,,0.01,,2013-05-22 15:21:00,
2013-05-22 10:32:00,63.0,59.0,29.68,ESE,111,0.0,3.0,86,0.02,,,0.02,,2013-05-22 15:32:00,
2013-05-22 10:42:00,63.0,59.0,29.68,ESE,111,0.0,3.0,86,0.02,,,0.02,,2013-05-22 15:42:00,
2013-05-22 10:53:00,62.0,58.0,29.68,North,11,1.0,5.0,87,0.03,,,0.03,,2013-05-22 15:53:00,
2013-05-22 11:03:00,62.0,58.0,29.69,NE,55,0.0,6.0,88,0.04,,,0.04,,2013-05-22 16:03:00,
2013-05-22 11:12:00,62.0,58.0,29.69,NE,55,0.0,6.0,88,0.04,,,0.04,,2013-05-22 16:12:00,
2013-05-22 11:23:00,61.0,58.0,29.69,South,169,0.0,5.0,89,0.03,,,0.04,,2013-05-22 16:23:00,
2013-05-22 11:32:00,61.0,58.0,29.69,NNE,28,1.0,7.0,89,0.02,,,0.04,,2013-05-22 16:32:00,
2013-05-22 11:42:00,61.0,58.0,29.69,NNE,28,1.0,7.0,89,0.02,,,0.04,,2013-05-22 16:42:00,
2013-05-22 11:52:00,61.0,58.0,29.69,South,178,2.0,4.0,90,0.01,,,0.04,,2013-05-22 16:52:00,
2013-05-22 12:02:00,62.0,59.0,29.70,NNE,24,3.0,5.0,90,0.00,,,0.04,,2013-05-22 17:02:00,
2013-05-22 12:11:00,62.0,59.0,29.70,NE,38,3.0,6.0,90,0.01,,,0.05,,2013-05-22 17:11:00,
2013-05-22 12:22:00,62.0,59.0,29.70,NE,38,3.0,6.0,90,0.01,,,0.05,,2013-05-22 17:22:00,
2013-05-22 12:33:00,61.0,58.0,29.70,ESE,108,0.0,7.0,90,0.01,,,0.05,,2013-05-22 17:33:00,
2013-05-22 12:42:00,61.0,58.0,29.70,ESE,108,0.0,7.0,90,0.01,,,0.05,,2013-05-22 17:42:00,
2013-05-22 12:53:00,61.0,58.0,29.70,NNE,31,0.0,8.0,90,0.04,,,0.08,,2013-05-22 17:53:00,
2013-05-22 13:02:00,60.0,57.0,29.70,ENE,76,0.0,6.0,90,0.04,,,0.08,,2013-05-22 18:02:00,
2013-05-22 13:14:00,60.0,57.0,29.70,ENE,76,0.0,6.0,90,0.04,,,0.08,,2013-05-22 18:14:00,
2013-05-22 13:22:00,60.0,57.0,29.70,NE,40,2.0,4.0,91,0.03,,,0.08,,2013-05-22 18:22:00,
2013-05-22 13:33:00,61.0,58.0,29.70,SSE,163,1.0,4.0,91,0.04,,,0.09,,2013-05-22 18:33:00,
2013-05-22 13:42:00,61.0,58.0,29.70,SSE,163,1.0,4.0,91,0.04,,,0.09,,2013-05-22 18:42:00,
2013-05-22 13:52:00,61.0,58.0,29.70,NE,43,0.0,8.0,91,0.01,,,0.09,,2013-05-22 18:52:00,
2013-05-22 14:02:00,62.0,59.0,29.70,East,92,1.0,7.0,90,0.01,,,0.09,,2013-05-22 19:02:00,
2013-05-22 14:11:00,62.0,59.0,29.70,East,92,1.0,7.0,90,0.01,,,0.09,,2013-05-22 19:11:00,
2013-05-22 14:21:00,62.0,59.0,29.70,SE,142,2.0,7.0,89,0.01,,,0.09,,2013-05-22 19:21:00,
2013-05-22 14:32:00,61.0,58.0,29.70,ENE,65,1.0,7.0,90,0.00,,,0.09,,2013-05-22 19:32:00,
2013-05-22 14:42:00,61.0,58.0,29.71,SE,144,0.0,7.0,90,0.00,,,0.09,,2013-05-22 19:42:00,
2013-05-22 14:52:00,61.0,58.0,29.71,SE,144,0.0,7.0,90,0.00,,,0.09,,2013-05-22 19:52:00,
2013-05-22 15:02:00,61.0,58.0,29.71,ESE,107,0.0,3.0,90,0.11,,,0.20,,2013-05-22 20:02:00,
2013-05-22 15:11:00,60.0,57.0,29.71,ESE,109,0.0,2.0,91,0.14,,,0.23,,2013-05-22 20:11:00,
2013-05-22 15:21:00,60.0,57.0,29.71,ESE,109,0.0,2.0,91,0.14,,,0.23,,2013-05-22 20:21:00,
2013-05-22 15:32:00,60.0,58.0,29.70,NE,49,0.0,4.0,92,0.20,,,0.29,,2013-05-22 20:32:00,
2013-05-22 15:42:00,61.0,59.0,29.71,NNE,13,1.0,4.0,92,0.21,,,0.30,,2013-05-22 20:42:00,
2013-05-22 15:51:00,61.0,59.0,29.71,NNE,13,1.0,4.0,92,0.21,,,0.30,,2013-05-22 20:51:00,
2013-05-22 16:01:00,61.0,59.0,29.71,ESE,108,1.0,4.0,92,0.10,,,0.30,,2013-05-22 21:01:00,
2013-05-22 16:11:00,61.0,59.0,29.71,ESE,108,1.0,4.0,92,0.10,,,0.30,,2013-05-22 21:11:00,
2013-05-22 16:21:00,61.0,58.0,29.71,North,11,0.0,4.0,91,0.07,,,0.30,,2013-05-22 21:21:00,
2013-05-22 16:32:00,60.0,58.0,29.72,SSE,162,1.0,3.0,92,0.01,,,0.30,,2013-05-22 21:32:00,
2013-05-22 16:42:00,60.0,58.0,29.72,SSE,162,1.0,3.0,92,0.01,,,0.30,,2013-05-22 21:42:00,
2013-05-22 16:52:00,60.0,57.0,29.72,SSE,161,1.0,5.0,91,0.00,,,0.30,,2013-05-22 21:52:00,
2013-05-22 17:03:00,60.0,57.0,29.72,NNE,32,0.0,3.0,91,0.00,,,0.30,,2013-05-22 22:03:00,
2013-05-22 17:12:00,60.0,57.0,29.72,NNE,32,0.0,3.0,91,0.00,,,0.30,,2013-05-22 22:12:00,
2013-05-22 17:22:00,60.0,57.0,29.72,NNE,17,2.0,6.0,91,0.00,,,0.30,,2013-05-22 22:22:00,
2013-05-22 17:33:00,60.0,57.0,29.73,NNW,342,2.0,7.0,90,0.00,,,0.30,,2013-05-22 22:33:00,
2013-05-22 17:42:00,59.0,56.0,29.73,North,10,5.0,5.0,91,0.02,,,0.32,,2013-05-22 22:42:00,
2013-05-22 17:52:00,59.0,56.0,29.73,North,10,5.0,5.0,91,0.02,,,0.32,,2013-05-22 22:52:00,
2013-05-22 18:02:00,59.0,56.0,29.74,NNW,340,3.0,10.0,91,0.03,,,0.33,,2013-05-22 23:02:00,
2013-05-22 18:12:00,59.0,56.0,29.74,NNW,340,3.0,10.0,91,0.03,,,0.33,,2013-05-22 23:12:00,
2013-05-22 18:21:00,58.0,55.0,29.74,NNE,20,1.0,8.0,91,0.05,,,0.35,,2013-05-22 23:21:00,
2013-05-22 18:32:00,58.0,55.0,29.75,NNE,30,3.0,10.0,91,0.07,,,0.37,,2013-05-22 23:32:00,
2013-05-22 18:42:00,58.0,55.0,29.75,NNE,30,3.0,10.0,91,0.07,,,0.37,,2013-05-22 23:42:00,
2013-05-22 18:52:00,58.0,56.0,29.75,NE,38,0.0,8.0,92,0.07,,,0.39,,2013-05-22 23:52:00,
2013-05-22 19:01:00,57.0,55.0,29.76,NNE,15,2.0,9.0,92,0.12,,,0.45,,2013-05-23 00:01:00,
2013-05-22 19:11:00,57.0,55.0,29.76,NNE,15,2.0,9.0,92,0.12,,,0.45,,2013-05-23 00:11:00,
2013-05-22 19:22:00,57.0,55.0,29.76,North,5,4.0,8.0,92,0.17,,,0.52,,2013-05-23 00:22:00,
2013-05-22 19:31:00,57.0,55.0,29.77,NNE,21,0.0,4.0,92,0.19,,,0.56,,2013-05-23 00:31:00,
2013-05-22 19:42:00,57.0,55.0,29.77,NNE,21,0.0,4.0,92,0.19,,,0.56,,2013-05-23 00:42:00,
2013-05-22 19:51:00,57.0,55.0,29.78,North,355,1.0,6.0,92,0.20,,,0.59,,2013-05-23 00:51:00,
2013-05-22 20:01:00,57.0,55.0,29.78,NNE,19,3.0,5.0,92,0.19,,,0.62,,2013-05-23 01:01:00,
2013-05-22 20:11:00,57.0,55.0,29.78,NNE,19,3.0,5.0,92,0.19,,,0.62,,2013-05-23 01:11:00,
2013-05-22 20:21:00,56.0,54.0,29.78,NNE,19,2.0,9.0,92,0.17,,,0.67,,2013-05-23 01:21:00,
2013-05-22 20:32:00,56.0,54.0,29.78,NNW,332,1.0,11.0,92,0.17,,,0.73,,2013-05-23 01:32:00,
2013-05-22 20:42:00,56.0,54.0,29.78,NE,44,2.0,12.0,92,0.15,,,0.73,,2013-05-23 01:42:00,
2013-05-22 20:52:00,56.0,54.0,29.78,NE,44,2.0,12.0,92,0.15,,,0.73,,2013-05-23 01:52:00,
2013-05-22 21:01:00,56.0,54.0,29.78,SE,141,2.0,14.0,92,0.12,,,0.74,,2013-05-23 02:01:00,
2013-05-22 21:11:00,56.0,54.0,29.78,SE,141,2.0,14.0,92,0.12,,,0.74,,2013-05-23 02:11:00,
2013-05-22 21:21:00,56.0,54.0,29.79,ENE,60,1.0,9.0,92,0.08,,,0.75,,2013-05-23 02:21:00,
2013-05-22 21:31:00,56.0,54.0,29.80,NE,46,1.0,7.0,92,0.04,,,0.76,,2013-05-23 02:31:00,
2013-05-22 21:42:00,56.0,54.0,29.80,NE,46,1.0,7.0,92,0.04,,,0.76,,2013-05-23 02:42:00,
2013-05-22 21:52:00,56.0,54.0,29.80,NE,46,1.0,7.0,92,0.04,,,0.76,,2013-05-23 02:52:00,
2013-05-22 22:01:00,55.0,53.0,29.82,NNE,27,4.0,10.0,92,0.11,,,0.85,,2013-05-23 03:01:00,
2013-05-22 22:11:00,55.0,53.0,29.82,NNE,27,4.0,10.0,92,0.11,,,0.85,,2013-05-23 03:11:00,
2013-05-22 22:21:00,55.0,53.0,29.83,NNE,27,3.0,13.0,92,0.12,,,0.87,,2013-05-23 03:21:00,
2013-05-22 22:33:00,54.0,52.0,29.83,NE,55,7.0,10.0,92,0.12,,,0.88,,2013-05-23 03:33:00,
2013-05-22 22:43:00,54.0,52.0,29.83,NE,55,7.0,10.0,92,0.12,,,0.88,,2013-05-23 03:43:00,
2013-05-22 22:53:00,54.0,51.0,29.84,NW,322,5.0,13.0,91,0.13,,,0.93,,2013-05-23 03:53:00,
2013-05-22 23:03:00,53.0,50.0,29.84,NE,51,4.0,13.0,91,0.11,,,0.94,,2013-05-23 04:03:00,
2013-05-22 23:12:00,53.0,50.0,29.84,NE,51,4.0,13.0,91,0.11,,,0.94,,2013-05-23 04:12:00,
2013-05-22 23:22:00,53.0,50.0,29.85,NNW,332,2.0,11.0,91,0.11,,,0.98,,2013-05-23 04:22:00,
2013-05-22 23:33:00,53.0,51.0,29.85,NW,309,0.0,8.0,92,0.13,,,1.01,,2013-05-23 04:33:00,
2013-05-22 23:42:00,53.0,51.0,29.85,NW,309,0.0,8.0,92,0.13,,,1.01,,2013-05-23 04:42:00,
2013-05-22 23:52:00,52.0,49.0,29.86,NNW,340,4.0,10.0,91,0.10,,,1.02,,2013-05-23 04:52:00,